This is the latest recevied weather packets stored in our database for station/object N6RDS. If no packets are shown the sender has not sent any weather packets the latest 10 day(s).
| Time | Temp. | Humidity | Pressure | Rain* | Wind** | Luminosity | Snow |
|---|---|---|---|---|---|---|---|
| 1777220188 | 6.11° C | 82% | 1015.4 hPa | 0 mm | - | 158 W/m² | - |
| 1777219885 | 6.67° C | 80% | 1015.2 hPa | 0 mm | - | 222 W/m² | - |
| 1777219582 | 6.11° C | 80% | 1015.4 hPa | 0 mm | - | 234 W/m² | - |
| 1777219279 | 6.11° C | 79% | 1015.2 hPa | 0 mm | - | 185 W/m² | - |
| 1777218975 | 5.56° C | 79% | 1015.2 hPa | 0 mm | - | 648 W/m² | - |
| 1777218671 | 5.56° C | 81% | 1015.2 hPa | 0 mm | - | 344 W/m² | - |
| 1777218366 | 6.11° C | 82% | 1015.4 hPa | 0 mm | - | 150 W/m² | - |
| 1777218063 | 5.56° C | 86% | 1015.3 hPa | 0 mm | - | 240 W/m² | - |
| 1777217758 | 6.11° C | 84% | 1015.2 hPa | 0 mm | - | 163 W/m² | - |
| 1777217454 | 6.11° C | 86% | 1015.2 hPa | 0 mm | - | 368 W/m² | - |
| 1777217150 | 5.56° C | 88% | 1015.2 hPa | 0 mm | - | 312 W/m² | - |
| 1777216847 | 5° C | 88% | 1015.1 hPa | 0 mm | - | 449 W/m² | - |
| 1777216543 | 5° C | 90% | 1015.2 hPa | 0 mm | - | 195 W/m² | - |
| 1777216239 | 4.44° C | 90% | 1015.2 hPa | 0 mm | - | 384 W/m² | - |
| 1777215938 | 3.89° C | 91% | 1015.4 hPa | 0 mm | - | 163 W/m² | - |
| 1777215634 | 3.89° C | 90% | 1015.5 hPa | 1.78 mm | - | 190 W/m² | - |
| 1777215329 | 3.33° C | 93% | 1015.7 hPa | 1.78 mm | - | 174 W/m² | - |
| 1777215026 | 3.33° C | 93% | 1015.4 hPa | 0 mm | - | 80 W/m² | - |
| 1777214726 | 2.78° C | 93% | 1015.4 hPa | 0 mm | - | 68 W/m² | - |
| 1777214425 | 2.78° C | 93% | 1015.5 hPa | 1.27 mm | - | 56 W/m² | - |
| 1777214120 | 2.78° C | 93% | 1015.4 hPa | 1.27 mm | - | 41 W/m² | - |
| 1777213815 | 2.22° C | 93% | 1015.5 hPa | 0 mm | - | 32 W/m² | - |
| 1777213509 | 2.22° C | 93% | 1015.7 hPa | 1.78 mm | - | 26 W/m² | - |
| 1777213208 | 2.22° C | 93% | 1015.4 hPa | 3.05 mm | - | 21 W/m² | - |
| 1777212904 | 2.22° C | 92% | 1015.5 hPa | 1.27 mm | - | 28 W/m² | - |
* Rain latest hour (hover to see other rain measurements)
** Current wind speed in m/s (hover to see current wind gust speed)